Location: Unspecified
(51.0000°N, 12.0000°E)
Time: 15:37:17
(UTC+02:00)

OTV 5 (USA 277) - Pass Details

Date: 30 April 2019
Orbit: 310 x 325 km, 54.5° (Epoch: 08 May)

Event Time Altitude Azimuth Distance (km) Brightness Sun altitude
Rises 21:30:13 0° 270° (W) 2,038 ? -8.7°
Reaches altitude 10° 21:32:14 10° 279° (W) 1,209 ? -9.0°
Maximum altitude 21:34:47 40° 351° (N) 482 ? -9.3°
Drops below altitude 10° 21:37:21 10° 64° (ENE) 1,209 ? -9.6°
Enters shadow 21:38:38 - 70° (ENE) 1,734 ? -9.8°
